カタログに戻る

STARLINK-3843

運用中通信VLEO
NORAD 52341·PAYLOAD·🇺🇸 United States

打ち上げ Apr 29, 2022 から Cape Canaveral Space Force Station

Loading…

次のパス (今後24時間)

TLE

最新Source: CelesTrak SupGP

元期: Sep 14, 2026, 20:50 UTC

1 52341C 22045L   26257.86854167  .00747920  00000+0  24140-1 0  2572
2 52341  53.1595  77.8198 0001206  79.6463 240.5088 15.31210384    15

AllMySatでSTARLINK-3843をリアルタイム追跡

Download on the App Store